Flag for Germany Weather past 2 weeks in Heide, Schleswig-Holstein, Germany

36 °F

Passing clouds.

Feels Like: 27 °F
Forecast: 39 / 46 °F
Wind: 13 mph from South

Location: Hohn

Current Time: Nov 25, 2015 at 2:11:18 AM

Latest Report: Nov 25, 2015 at 12:20 AM

Visibility: 5 mi

Pressure: 29.65 "Hg

Humidity: 93%

Dew point: 34 °F

Location of HeideLocation

Historic Weather in Heide — Graph


Heide temperature yesterday

Maximum temperature yesterday: 41 °F (at 2:20 AM)
Minimum temperature yesterday: 34 °F (at 6:20 PM)
Average temperature yesterday: 37 °F

Past Weeks' High & Low Weather Summary

High59 °F (Nov 10, 10:20 AM)100% (Nov 10, 2:20 AM)30.18 "Hg (Nov 10, 2:20 AM)
Low27 °F (Nov 23, 8:20 AM)63% (Nov 13, 2:20 PM)29.24 "Hg (Nov 18, 4:20 AM)
Average47 °F88%29.74 "Hg
* Reported Nov 10 12:20 AM — Nov 25 12:20 AM, Heide, Weather by CustomWeather, © 2015

Note: Actual official high and low records may vary slightly from our data, if they occured in-between our weather recording intervals... More about our weather records


Heide weather history for previous 24 hours

Time TempWeatherWind HumidityBarometerVisibility
12:20 AM
Wed, Nov 25
36 °FPassing clouds.13 mph93%29.65 "Hg5 mi
11:20 PM
Tue, Nov 24
36 °FPassing clouds.13 mph93%29.65 "Hg5 mi
10:20 PM36 °FPassing clouds.13 mph93%29.65 "Hg5 mi
9:20 PM36 °FPassing clouds.13 mph93%29.68 "Hg5 mi
8:20 PM36 °FLight rain. Passing clouds.17 mph93%29.68 "Hg5 mi
7:20 PM34 °FPassing clouds.17 mph100%29.71 "Hg5 mi
7:01 PM34 °FRain. Fog.17 mph93%29.71 "Hg2 mi
6:20 PM34 °FLight rain. Fog.17 mph93%29.71 "Hg3 mi
5:20 PM36 °FRain. Fog.16 mph93%29.74 "Hg3 mi
5:00 PM36 °FLight rain. Passing clouds.18 mph93%29.74 "Hg4 mi
4:20 PM36 °FLight rain. Partly cloudy.20 mph93%29.74 "Hg4 mi
3:45 PM37 °FLight rain. Partly sunny.21 mph87%29.74 "Hg5 mi
3:20 PM36 °FLight rain. Partly sunny.16 mph93%29.77 "Hg4 mi
2:20 PM37 °FLight rain. Partly sunny.20 mph87%29.77 "Hg4 mi
1:20 PM37 °FLight rain. Partly sunny.20 mph87%29.80 "Hg4 mi
12:20 PM37 °FLight rain. Partly sunny.16 mph87%29.86 "Hg4 mi
11:20 AM37 °FLight rain. Partly sunny.21 mph87%29.86 "Hg4 mi
10:20 AM37 °FLight rain. Partly sunny.17 mph87%29.89 "Hg4 mi
9:20 AM37 °FLight rain. Partly sunny.16 mph87%29.92 "Hg4 mi
8:20 AM39 °FLight rain. Mostly cloudy.14 mph75%29.95 "Hg5 mi
7:20 AM39 °FPassing clouds.14 mph75%29.95 "HgN/A
6:20 AM39 °FPassing clouds.14 mph75%29.95 "HgN/A
5:20 AM39 °FPartly cloudy.14 mph81%29.98 "HgN/A
4:20 AM39 °FPassing clouds.13 mph81%29.98 "HgN/A
3:20 AM39 °FPartly cloudy.10 mph81%30.01 "HgN/A
2:20 AM41 °FPassing clouds.13 mph81%30.01 "HgN/A
Weather by CustomWeather, © 2015

See weather overviewHow to use our weather pages